Vertical_Velocity
1 1 1 1 1 1 1 0 0 0 0 1 1 1 1 2 2 2 1 2 3 3 2 2 3 3 3 2 2 2 2 0 0 -0 -0 -1 -1 -1 -0 0 1 2 2 2 2 3 4 4 5 4 3 2 3 2 0 0 2 2 1 0 2 3 4 4 1 0 1 1 0
2 2 2 2 2 2 2 2 2 2 2 1 2 2 2 2 3 3 3 3 4 4 4 4 3 4 5 4 3 3 4 3 2 1 1 1 1 1 0 0 -0 0 1 4 6 6 5 5 6 5 3 1 2 2 2 1 4 4 3 0 2 4 6 4 2 2 4 4 3
3 2 2 2 2 2 3 3 2 3 3 3 3 3 3 3 3 4 4 4 4 5 5 5 4 5 6 6 5 4 5 5 4 3 2 2 2 2 2 2 1 0 1 4 7 7 6 7 7 6 5 3 2 1 1 1 4 5 5 3 4 6 6 4 4 5 6 5 4
3 3 3 3 3 3 3 3 3 3 3 4 4 4 4 4 4 5 5 5 5 5 5 5 5 5 5 6 6 6 5 6 6 5 4 3 3 4 4 3 2 2 2 4 6 6 6 8 8 6 4 4 5 4 2 0 2 2 3 3 5 6 6 4 5 6 7 5 4
3 3 3 4 4 3 3 3 4 4 3 3 5 5 5 5 5 5 5 5 6 6 6 6 6 5 4 5 6 6 6 6 6 6 6 5 4 4 5 4 3 2 2 3 4 6 7 10 11 9 7 5 4 4 3 1 1 0 -0 -0 2 4 5 5 5 6 6 5 3
3 3 4 4 4 4 4 4 4 4 4 4 5 5 4 4 5 5 5 5 5 5 5 5 5 5 4 4 5 6 6 6 5 6 6 6 4 4 5 5 4 3 3 4 4 4 5 8 12 11 8 6 4 2 -1 -1 0 1 -0 -2 -2 0 3 4 4 5 6 4 3
1 2 3 3 4 5 5 4 4 4 4 4 4 4 4 3 4 4 4 4 4 4 4 4 4 4 4 4 4 4 4 5 4 4 4 5 4 4 4 4 4 3 3 3 4 4 3 2 7 10 9 5 3 1 -1 -1 1 2 1 -3 -6 -4 -1 1 1 3 4 4 2
-1 -0 0 1 2 3 4 4 4 4 4 3 3 3 2 2 2 2 2 2 3 3 3 3 3 3 3 4 3 3 3 3 3 3 2 3 4 3 3 3 4 4 3 3 4 4 2 1 1 4 7 7 4 2 0 2 5 5 3 -1 -4 -5 -3 -1 0 1 2 2 1
-3 -3 -2 -2 -1 0 1 1 1 2 2 2 1 1 1 1 1 1 1 1 1 1 1 2 2 2 2 2 2 2 2 2 2 2 2 1 2 3 2 1 3 3 3 2 3 3 3 1 1 1 2 4 4 3 2 4 8 8 6 4 2 1 0 1 3 3 3 2 2
-3 -3 -4 -3 -4 -3 -2 -1 -1 -1 -0 1 -1 -1 -0 0 -0 -0 -0 -0 -0 -0 -1 -1 -0 0 0 0 1 1 1 1 1 2 2 1 2 2 2 2 2 2 2 2 2 2 3 2 1 1 0 1 2 2 1 2 6 8 8 6 7 7 7 6 7 8 8 7 5
-2 -3 -3 -3 -3 -4 -4 -3 -3 -3 -2 -1 -2 -2 -2 -1 -1 -2 -2 -2 -1 -1 -2 -3 -2 -1 -1 -2 -1 -0 -0 -0 0 1 1 2 2 2 2 2 2 3 3 2 2 2 2 2 1 1 0 -0 1 1 1 -1 1 3 5 4 7 9 10 8 8 10 11 11 9
-1 -2 -2 -2 -2 -3 -3 -2 -3 -3 -2 -2 -2 -3 -3 -2 -3 -3 -3 -3 -2 -2 -3 -3 -2 -2 -2 -3 -3 -3 -2 -1 -1 -1 -0 1 1 1 2 2 2 3 3 3 3 3 2 2 1 1 0 -0 0 1 1 1 1 1 1 1 3 5 7 6 7 9 10 11 11
-1 -1 -2 -2 -2 -2 -2 -2 -2 -2 -2 -1 -2 -3 -3 -3 -4 -4 -3 -2 -3 -4 -4 -3 -3 -2 -1 -2 -3 -3 -3 -2 -2 -1 -1 -1 -0 0 1 1 1 2 3 3 3 3 4 2 1 1 1 0 -0 1 2 3 3 2 1 1 2 2 2 2 5 7 9 10 11
-2 -1 -2 -2 -2 -2 -2 -2 -3 -3 -2 -2 -3 -3 -3 -2 -4 -4 -3 -2 -3 -4 -3 -2 -3 -2 -1 -0 -1 -2 -3 -2 -2 -1 -1 -1 -1 -0 0 1 0 1 2 2 2 3 4 4 2 2 1 1 0 0 2 3 4 4 3 3 2 2 1 2 4 7 8 9 8
-2 -2 -2 -2 -2 -3 -3 -3 -3 -4 -4 -3 -4 -4 -3 -3 -4 -4 -3 -1 -3 -3 -3 -2 -2 -2 -2 -1 0 0 -1 -2 -1 -1 -0 -1 -1 -1 0 1 1 1 1 2 1 1 2 3 3 2 1 1 0 1 1 3 4 4 4 4 4 3 3 3 4 5 7 7 7
-2 -3 -3 -3 -3 -3 -4 -4 -4 -4 -4 -3 -4 -4 -3 -2 -3 -3 -2 -1 -2 -3 -3 -2 -2 -2 -2 -2 -1 0 1 0 -1 -1 -0 -0 -1 -1 -0 1 1 1 2 2 1 1 1 1 2 2 1 1 0 0 1 2 3 4 4 4 4 4 4 3 4 4 5 4 5
-2 -3 -4 -3 -3 -4 -4 -5 -5 -4 -4 -4 -4 -4 -3 -2 -3 -3 -2 -2 -2 -2 -2 -3 -3 -2 -1 -1 -3 -2 -0 1 -0 -1 -1 -0 -0 -1 -1 -0 0 1 1 1 1 1 0 -0 0 1 1 1 0 -0 0 1 2 2 3 3 3 4 4 3 3 4 4 3 4
-2 -2 -3 -3 -3 -3 -4 -4 -4 -4 -4 -3 -3 -3 -3 -3 -2 -2 -2 -3 -2 -1 -0 -2 -4 -3 -1 0 -2 -3 -3 -0 -0 -2 -2 -2 -1 -1 -1 -1 -1 -0 1 1 1 0 0 -0 0 0 1 1 -0 -0 -0 0 1 1 1 1 2 2 2 2 3 3 3 3 2
-2 -2 -2 -3 -3 -3 -3 -3 -3 -3 -3 -3 -3 -2 -2 -3 -2 -1 -1 -2 -3 -2 -0 -0 -2 -3 -3 -1 -1 -2 -3 -3 -2 -2 -3 -3 -2 -1 -0 -1 -1 -0 0 1 1 0 0 0 0 0 0 0 -0 -1 -1 -1 -0 -0 -0 -0 0 0 1 1 2 2 2 2 2
-2 -2 -2 -2 -2 -2 -2 -2 -2 -2 -2 -3 -3 -2 -2 -2 -3 -2 -1 -1 -3 -3 -2 -0 -1 -2 -3 -2 -1 -1 -2 -4 -2 -2 -2 -4 -2 -1 -0 -1 -1 -1 -1 0 1 1 1 0 0 0 -0 -0 -0 -1 -2 -2 -1 -1 -1 -1 -1 -1 -0 0 1 1 2 2 2
-3 -2 -1 -1 -1 -1 -1 -2 -2 -2 -2 -2 -3 -2 -2 -2 -2 -2 -1 -2 -2 -2 -2 -2 -2 -2 -2 -3 -2 -2 -2 -4 -3 -2 -2 -4 -3 -2 -1 -1 -1 -1 -1 -1 0 1 1 1 1 1 0 -0 -1 -1 -2 -2 -2 -2 -2 -2 -2 -1 -1 -0 1 1 1 2 2
-4 -3 -3 -2 -1 -1 -1 -1 -2 -1 -1 -2 -2 -2 -2 -2 -2 -2 -2 -2 -2 -2 -1 -2 -2 -2 -2 -2 -2 -2 -2 -3 -2 -2 -1 -1 -2 -2 -3 -2 -1 -1 -2 -2 -0 1 1 1 0 0 0 0 -1 -2 -3 -3 -3 -3 -3 -3 -2 -1 -0 0 1 1 2 2 2
-4 -4 -4 -4 -2 -2 -2 -2 -2 -1 -1 -1 -2 -2 -2 -1 -2 -2 -2 -1 -1 -1 -1 -2 -2 -2 -1 -2 -2 -1 -1 -2 -2 -2 -1 0 0 -1 -2 -3 -1 -1 -1 -2 -0 1 1 1 -0 -1 -1 -1 -2 -3 -4 -4 -4 -4 -4 -4 -3 -2 -1 0 1 2 2 2 2
-5 -5 -5 -6 -4 -4 -3 -3 -2 -2 -2 -2 -2 -2 -1 -1 -2 -2 -2 -1 -1 -1 -1 -1 -2 -2 -1 -1 -1 -0 -0 0 -0 -1 -1 -0 1 1 1 -1 -1 -1 -1 -1 0 1 2 1 -0 -1 -3 -4 -4 -4 -5 -5 -4 -4 -4 -4 -4 -4 -3 -2 0 2 3 3 2
-6 -5 -5 -6 -5 -5 -4 -4 -4 -3 -3 -3 -3 -2 -2 -2 -2 -2 -2 -1 -2 -2 -1 -0 -1 -2 -2 -1 -0 0 1 2 2 1 0 -0 0 1 2 2 1 -0 -1 -0 1 2 2 2 1 -0 -2 -4 -5 -6 -6 -6 -5 -4 -4 -4 -5 -5 -5 -4 -3 -1 1 2 2
-6 -5 -4 -5 -5 -4 -4 -4 -4 -3 -3 -4 -3 -3 -2 -3 -4 -3 -2 -2 -3 -3 -2 -1 -1 -1 -2 -1 0 1 1 1 2 2 2 2 1 1 2 2 2 1 1 1 2 3 3 3 3 2 0 -2 -4 -6 -6 -7 -7 -6 -4 -4 -4 -5 -5 -4 -5 -5 -3 -1 0
-5 -4 -4 -5 -4 -3 -3 -4 -3 -3 -3 -4 -3 -3 -3 -4 -4 -3 -3 -3 -3 -3 -2 -1 -1 -1 -1 -1 0 1 1 1 1 2 2 2 2 2 2 2 2 2 2 2 3 3 3 3 3 3 2 -0 -2 -4 -5 -6 -7 -7 -6 -4 -4 -4 -4 -4 -5 -6 -6 -4 -3
-4 -4 -4 -4 -3 -3 -3 -4 -3 -2 -3 -3 -3 -2 -3 -4 -3 -3 -3 -3 -3 -2 -2 -2 -2 -2 -1 0 0 0 1 1 1 1 1 1 2 2 2 2 2 1 2 3 4 4 3 2 2 2 2 1 -1 -3 -4 -6 -6 -7 -6 -5 -4 -3 -2 -3 -4 -5 -5 -5 -5
-3 -3 -4 -4 -3 -3 -3 -3 -2 -2 -2 -3 -2 -2 -2 -2 -2 -2 -2 -2 -2 -2 -1 -2 -2 -2 -1 0 -0 -0 -0 1 0 -0 0 0 -0 -1 -0 1 1 1 1 1 3 4 3 2 2 2 2 1 -1 -2 -4 -6 -6 -6 -6 -5 -4 -2 -1 -2 -3 -4 -4 -5 -5
-4 -3 -3 -2 -2 -2 -2 -2 -1 -1 -2 -2 -2 -2 -2 -2 -2 -2 -2 -2 -1 -1 -2 -2 -1 -0 -0 -1 -1 -0 1 -0 -1 -1 0 0 -1 -2 -3 -2 -0 -0 -0 0 2 3 3 2 2 2 1 1 -0 -2 -3 -5 -5 -5 -4 -4 -4 -3 -2 -2 -2 -3 -3 -4 -4
-3 -3 -2 -2 -2 -2 -2 -1 -1 -1 -1 -2 -1 -1 -1 -1 -1 -2 -2 -2 -1 -1 -2 -3 -0 1 1 -2 -1 0 1 0 -1 -1 -0 -0 -0 -1 -2 -3 -1 -0 -0 0 2 3 3 2 2 2 1 0 -1 -2 -3 -3 -3 -3 -3 -3 -3 -2 -2 -2 -2 -2 -2 -2 -2
-2 -2 -2 -1 -1 -1 -2 -2 -1 -0 -0 -1 -1 -1 -1 -0 -1 -1 -1 -1 -1 -1 -2 -3 -2 -1 -1 -2 -2 -1 -0 -0 -0 -0 -0 -1 -1 -1 -1 -2 -1 -0 0 2 3 3 3 3 3 2 1 -1 -1 -2 -2 -2 -2 -2 -2 -3 -2 -2 -2 -1 -2 -2 -2 -2 -1
-1 -2 -1 -1 -0 -1 -1 -1 -1 -0 -0 0 -0 -0 -0 0 0 -0 -1 -2 -1 -0 -0 -2 -3 -3 -2 -3 -3 -2 -2 -1 -1 -0 0 0 -1 -1 -1 -0 -1 -1 1 3 4 4 3 3 3 2 0 -2 -2 -2 -2 -1 -1 -1 -2 -1 -2 -1 -1 0 -0 -1 -1 -1 -0
-1 -1 -0 -0 -1 -0 -0 0 -0 -0 0 2 1 -0 -0 0 1 1 -0 -2 -2 -1 0 -0 -1 -1 -1 -2 -3 -2 -1 -1 -2 -1 -0 1 -0 -0 -0 0 -1 -1 1 5 5 4 3 3 3 2 -0 -2 -3 -2 -2 -1 -1 -1 -1 -1 -1 -1 -0 0 0 0 -0 -0 1
-1 -0 1 0 -1 -1 0 1 0 0 0 2 1 1 -0 0 1 2 1 -1 -1 -0 0 -1 -1 0 1 1 -2 -1 -0 1 -0 -1 -1 -0 0 1 1 1 -1 -1 1 6 6 5 4 3 2 1 -0 -2 -3 -3 -2 -1 -1 -1 -1 -1 -0 -0 -0 -0 -0 -0 -0 0 1
-0 0 1 1 -0 -1 -0 1 1 1 1 1 1 1 1 1 1 1 -0 -1 0 1 1 -2 -2 1 3 2 -1 -1 -0 1 1 1 -0 -1 -1 1 2 1 -1 -1 1 5 7 7 5 3 2 1 -0 -2 -2 -3 -3 -2 -1 -2 -2 -2 -1 -1 -1 -1 -1 -1 -1 -0 2
0 0 1 2 0 -1 -2 -1 1 2 1 0 -0 -0 1 1 2 1 -1 -3 0 2 1 -3 -2 1 3 2 1 0 0 -0 1 2 2 -0 -1 -0 1 2 0 -1 -0 3 7 8 6 3 2 1 0 -1 -1 -3 -3 -4 -3 -3 -3 -2 -1 -2 -2 -3 -3 -2 -1 -0 2
1 0 1 2 0 -1 -2 -2 -0 1 1 -0 -1 -0 -0 0 2 1 -0 -3 -1 1 0 -3 -2 -0 1 1 2 2 1 -0 1 3 4 2 -1 -1 -0 2 1 -1 -1 2 7 8 7 5 4 2 1 1 -1 -2 -4 -5 -4 -4 -4 -4 -3 -3 -3 -4 -3 -2 -1 -0 1
1 0 0 1 -0 -2 -2 -2 -1 -1 -1 -1 -0 -0 -1 -2 0 1 1 -1 -1 0 0 -1 -1 -1 -1 -0 2 2 2 0 1 3 4 5 1 -1 -1 2 2 0 -1 1 5 8 8 6 5 4 3 2 -0 -2 -4 -5 -4 -4 -4 -5 -4 -4 -4 -4 -4 -2 -1 -1 -1
1 1 0 0 -1 -2 -2 -1 -1 -2 -2 -2 1 0 -1 -3 -1 0 1 -0 0 0 -0 -1 -0 -0 -1 -1 1 1 1 0 1 2 4 6 4 1 0 1 2 1 0 0 4 6 7 7 6 5 4 2 0 -2 -4 -4 -3 -3 -4 -6 -5 -4 -3 -5 -5 -3 -1 -1 -2
1 0 0 -0 -2 -3 -3 -2 -1 -2 -3 -2 0 1 -0 -1 -0 -0 0 0 1 1 0 -1 -0 -0 -0 -1 -0 0 0 -0 0 1 3 5 5 3 2 1 2 2 1 -0 2 4 6 7 6 5 4 3 1 -1 -3 -3 -2 -2 -4 -6 -6 -4 -3 -4 -6 -4 -3 -1 -2
Height
3081 3080 3079 3078 3077 3076 3076 3075 3074 3073 3072 3071 3070 3069 3068 3067 3066 3065 3064 3063 3062 3061 3060 3059 3058 3057 3056 3055 3054 3053 3051 3051 3050 3048 3047 3047 3046 3045 3045 3044 3043 3042 3042 3041 3040 3040 3039 3038 3036 3036 3034 3034 3033 3032 3032 3032 3032 3031 3030 3029 3028 3027 3026 3025 3024 3023 3023 3023 3022
3079 3078 3077 3076 3076 3075 3074 3073 3072 3071 3070 3069 3068 3067 3066 3065 3064 3063 3062 3061 3060 3059 3058 3057 3056 3055 3054 3053 3052 3051 3050 3048 3047 3046 3045 3045 3043 3043 3042 3041 3040 3040 3039 3038 3037 3037 3036 3035 3034 3032 3031 3030 3030 3029 3029 3029 3029 3028 3027 3026 3025 3024 3023 3022 3021 3020 3020 3019 3019
3077 3076 3076 3075 3074 3072 3071 3071 3070 3069 3068 3067 3066 3065 3064 3063 3062 3061 3060 3059 3058 3057 3056 3055 3054 3053 3052 3051 3050 3049 3048 3046 3045 3044 3043 3042 3041 3040 3039 3038 3037 3036 3036 3035 3034 3033 3032 3031 3031 3029 3028 3027 3026 3026 3025 3025 3025 3024 3023 3022 3022 3021 3020 3019 3018 3017 3017 3016 3015
3076 3075 3074 3073 3072 3071 3069 3069 3068 3067 3066 3065 3064 3063 3062 3061 3060 3059 3058 3057 3056 3055 3054 3052 3051 3051 3050 3049 3047 3046 3045 3044 3043 3042 3041 3040 3039 3038 3037 3036 3035 3034 3033 3033 3031 3030 3029 3028 3027 3026 3025 3024 3023 3022 3022 3021 3021 3020 3019 3019 3018 3018 3016 3015 3015 3014 3013 3012 3011
3074 3073 3072 3071 3070 3069 3068 3067 3066 3065 3064 3063 3062 3061 3060 3059 3057 3056 3056 3054 3054 3052 3051 3050 3049 3048 3047 3046 3045 3044 3043 3042 3041 3040 3038 3037 3036 3036 3034 3033 3032 3031 3030 3030 3028 3027 3026 3026 3024 3022 3021 3020 3020 3019 3019 3018 3017 3016 3015 3015 3014 3014 3013 3012 3011 3010 3009 3008 3007
3071 3071 3070 3069 3067 3066 3066 3064 3063 3062 3061 3060 3059 3058 3057 3056 3055 3054 3053 3052 3051 3050 3049 3048 3047 3046 3044 3043 3042 3041 3040 3039 3038 3037 3036 3035 3034 3033 3032 3031 3030 3029 3028 3026 3026 3024 3023 3022 3021 3019 3017 3016 3016 3015 3015 3014 3013 3012 3011 3010 3010 3009 3009 3008 3007 3006 3005 3004 3003
3069 3068 3067 3066 3065 3064 3063 3062 3061 3060 3059 3058 3057 3056 3054 3053 3052 3051 3050 3049 3048 3047 3046 3045 3044 3042 3041 3041 3039 3038 3037 3036 3035 3034 3033 3031 3031 3030 3029 3028 3027 3026 3025 3024 3022 3021 3020 3019 3018 3016 3015 3013 3012 3011 3011 3010 3009 3008 3006 3006 3005 3005 3005 3004 3003 3002 3001 3000 2999
3066 3066 3065 3064 3063 3062 3061 3060 3059 3057 3056 3055 3054 3053 3051 3050 3049 3048 3047 3046 3045 3044 3043 3042 3041 3040 3038 3037 3036 3035 3034 3033 3032 3031 3030 3029 3027 3026 3025 3024 3023 3022 3021 3020 3019 3017 3016 3015 3014 3013 3012 3011 3009 3008 3007 3007 3006 3004 3003 3001 3001 3000 3000 2999 2998 2997 2996 2996 2995
3064 3063 3062 3061 3061 3060 3059 3057 3056 3055 3054 3052 3051 3050 3049 3048 3046 3046 3044 3043 3042 3041 3040 3039 3037 3036 3035 3034 3033 3032 3031 3030 3028 3027 3026 3025 3024 3023 3022 3021 3020 3019 3018 3017 3016 3014 3013 3011 3010 3009 3008 3007 3006 3005 3004 3003 3002 3001 2999 2998 2997 2996 2995 2995 2993 2993 2992 2991 2990
3061 3060 3059 3059 3058 3057 3056 3055 3054 3053 3052 3051 3049 3048 3047 3045 3044 3043 3041 3040 3039 3038 3036 3035 3034 3033 3032 3031 3030 3028 3027 3026 3025 3024 3023 3022 3021 3020 3018 3017 3016 3015 3014 3013 3012 3011 3009 3008 3007 3006 3005 3004 3003 3001 3001 3000 2999 2997 2996 2995 2993 2992 2991 2990 2989 2988 2987 2986 2985
3059 3058 3057 3056 3055 3054 3054 3053 3052 3051 3050 3048 3047 3046 3045 3043 3042 3041 3039 3038 3036 3035 3034 3032 3031 3030 3029 3027 3026 3025 3024 3023 3021 3020 3019 3018 3017 3016 3015 3014 3012 3011 3010 3009 3008 3006 3005 3004 3003 3002 3001 3000 2999 2998 2996 2996 2995 2993 2992 2991 2990 2989 2987 2986 2986 2985 2983 2982 2981
3057 3056 3055 3054 3052 3052 3051 3050 3049 3048 3047 3046 3044 3043 3042 3041 3039 3038 3036 3035 3034 3032 3031 3030 3028 3027 3026 3024 3023 3022 3021 3019 3018 3017 3016 3014 3013 3012 3011 3010 3009 3007 3006 3005 3004 3002 3001 3000 2999 2998 2997 2996 2995 2994 2993 2991 2990 2989 2987 2986 2986 2985 2983 2982 2982 2981 2980 2978 2977
3055 3053 3052 3051 3050 3049 3048 3047 3046 3045 3043 3042 3041 3040 3038 3037 3036 3035 3033 3032 3031 3029 3028 3027 3026 3024 3022 3021 3020 3018 3017 3016 3014 3013 3012 3011 3009 3008 3007 3006 3005 3003 3002 3001 3000 2999 2997 2996 2995 2994 2993 2991 2991 2990 2989 2987 2986 2985 2983 2982 2981 2980 2979 2978 2978 2977 2976 2974 2973
3052 3051 3050 3048 3047 3046 3045 3044 3042 3041 3040 3039 3037 3036 3035 3034 3032 3031 3030 3028 3027 3026 3024 3023 3022 3021 3019 3018 3016 3015 3013 3012 3011 3009 3008 3007 3006 3005 3003 3002 3001 3000 2998 2997 2996 2995 2993 2992 2991 2990 2989 2987 2986 2986 2985 2983 2982 2981 2979 2978 2976 2976 2975 2974 2973 2972 2971 2970 2969
3049 3048 3047 3046 3044 3043 3041 3040 3039 3038 3036 3035 3034 3033 3031 3030 3029 3027 3026 3025 3023 3022 3021 3020 3018 3017 3016 3014 3013 3011 3010 3008 3007 3006 3004 3003 3002 3001 3000 2998 2997 2996 2994 2993 2991 2990 2989 2988 2987 2986 2984 2983 2982 2981 2981 2979 2978 2976 2975 2974 2972 2971 2970 2969 2969 2968 2967 2966 2965
3046 3045 3044 3042 3041 3040 3038 3037 3035 3034 3033 3031 3030 3029 3028 3026 3025 3024 3023 3021 3020 3018 3017 3016 3015 3013 3012 3011 3010 3008 3006 3005 3004 3002 3001 3000 2998 2997 2996 2995 2993 2992 2991 2989 2987 2986 2985 2984 2983 2981 2980 2979 2978 2977 2976 2975 2973 2972 2971 2969 2968 2967 2966 2965 2964 2963 2962 2961 2961
3043 3041 3040 3039 3037 3036 3035 3033 3032 3031 3029 3028 3026 3026 3024 3023 3021 3021 3019 3018 3016 3015 3014 3013 3011 3010 3009 3008 3006 3005 3004 3002 3001 2999 2998 2996 2995 2994 2992 2991 2990 2988 2987 2985 2984 2982 2981 2980 2979 2977 2976 2975 2973 2972 2971 2970 2969 2967 2966 2965 2964 2962 2961 2961 2960 2959 2958 2957 2956
3039 3038 3036 3035 3034 3032 3031 3030 3028 3027 3026 3025 3023 3022 3021 3020 3018 3017 3016 3015 3013 3012 3011 3009 3008 3007 3006 3005 3003 3002 3001 2999 2998 2996 2995 2994 2992 2991 2989 2988 2986 2985 2984 2982 2981 2979 2978 2976 2975 2974 2972 2971 2969 2968 2967 2965 2964 2963 2961 2961 2959 2958 2957 2956 2956 2955 2954 2953 2952
3036 3035 3033 3032 3031 3029 3028 3026 3025 3024 3022 3021 3020 3019 3018 3016 3015 3014 3013 3011 3011 3009 3007 3006 3005 3004 3003 3001 3000 2999 2998 2996 2995 2994 2992 2991 2990 2988 2986 2985 2983 2982 2981 2979 2977 2976 2974 2973 2971 2970 2969 2967 2966 2964 2963 2961 2960 2959 2957 2956 2955 2954 2953 2952 2952 2951 2950 2950 2949
3033 3032 3031 3029 3028 3026 3025 3023 3022 3021 3019 3018 3017 3016 3015 3013 3012 3011 3010 3008 3007 3006 3005 3003 3002 3001 2999 2998 2997 2996 2994 2993 2992 2991 2989 2988 2986 2985 2984 2982 2980 2979 2977 2976 2974 2972 2971 2970 2968 2966 2965 2963 2961 2960 2959 2957 2956 2955 2953 2952 2951 2950 2949 2949 2948 2947 2946 2946 2945
3030 3029 3027 3026 3025 3023 3022 3021 3019 3017 3016 3015 3014 3012 3011 3010 3009 3008 3006 3005 3004 3003 3001 3000 2998 2997 2996 2994 2993 2992 2991 2990 2989 2987 2986 2985 2983 2982 2980 2979 2977 2976 2974 2972 2971 2969 2968 2966 2964 2962 2961 2959 2957 2956 2954 2953 2951 2950 2949 2948 2947 2946 2946 2945 2944 2943 2943 2942 2941
3027 3025 3024 3023 3021 3020 3019 3017 3016 3014 3013 3011 3010 3009 3008 3006 3005 3004 3003 3002 3000 2999 2997 2996 2995 2993 2992 2991 2989 2988 2987 2986 2985 2984 2982 2981 2980 2978 2977 2975 2974 2972 2971 2969 2968 2966 2964 2962 2961 2959 2957 2955 2954 2952 2950 2949 2947 2946 2945 2944 2943 2943 2942 2941 2941 2940 2939 2938 2938
3023 3021 3020 3019 3017 3016 3015 3013 3012 3011 3009 3007 3006 3005 3004 3002 3001 3000 2999 2998 2996 2995 2994 2992 2991 2990 2988 2987 2986 2984 2983 2982 2981 2980 2978 2977 2976 2974 2973 2971 2970 2969 2967 2966 2964 2963 2961 2959 2957 2956 2954 2952 2950 2948 2946 2945 2943 2942 2941 2940 2939 2939 2938 2937 2937 2936 2935 2935 2934
3019 3017 3016 3015 3013 3012 3010 3009 3008 3006 3005 3003 3002 3001 2999 2998 2997 2996 2995 2993 2992 2991 2990 2988 2987 2986 2984 2983 2982 2981 2979 2977 2976 2975 2974 2973 2971 2970 2969 2967 2966 2965 2963 2962 2961 2959 2957 2956 2953 2951 2950 2948 2946 2944 2943 2941 2940 2939 2937 2936 2935 2935 2934 2933 2933 2932 2931 2931 2930
3015 3014 3012 3011 3009 3008 3006 3005 3003 3002 3001 2999 2998 2996 2995 2994 2993 2991 2990 2989 2987 2986 2985 2984 2982 2981 2980 2979 2977 2976 2975 2973 2972 2971 2969 2968 2967 2966 2965 2963 2962 2961 2960 2958 2957 2956 2954 2952 2950 2948 2946 2944 2942 2941 2939 2938 2936 2935 2934 2933 2931 2931 2930 2929 2928 2928 2927 2926 2925
3012 3010 3009 3007 3006 3005 3003 3001 3000 2999 2997 2996 2994 2993 2991 2990 2988 2987 2986 2984 2983 2982 2981 2979 2978 2977 2976 2974 2973 2972 2971 2969 2968 2966 2965 2963 2962 2961 2960 2959 2958 2956 2956 2954 2953 2952 2950 2949 2947 2945 2942 2940 2938 2936 2935 2934 2932 2931 2930 2929 2928 2927 2926 2925 2924 2923 2923 2922 2921
3009 3007 3006 3004 3003 3001 3000 2998 2997 2995 2994 2992 2991 2989 2987 2986 2985 2983 2982 2980 2979 2978 2976 2975 2974 2972 2971 2970 2969 2967 2966 2965 2964 2962 2961 2960 2958 2957 2956 2955 2953 2952 2951 2950 2949 2948 2946 2945 2943 2941 2939 2937 2935 2933 2931 2930 2928 2927 2926 2925 2924 2923 2922 2921 2920 2919 2918 2917 2917
3006 3004 3003 3001 3000 2998 2997 2995 2994 2992 2990 2989 2987 2986 2984 2983 2981 2980 2978 2977 2976 2974 2972 2971 2970 2968 2967 2966 2964 2963 2962 2961 2959 2958 2957 2956 2954 2953 2952 2951 2950 2948 2947 2946 2945 2944 2942 2941 2939 2937 2936 2934 2931 2930 2928 2926 2925 2924 2922 2921 2921 2920 2918 2917 2916 2915 2914 2913 2912
3003 3001 3000 2998 2997 2995 2994 2992 2991 2989 2987 2986 2984 2983 2981 2980 2978 2976 2975 2974 2972 2971 2969 2967 2966 2965 2963 2962 2961 2959 2958 2956 2955 2954 2953 2951 2951 2949 2948 2947 2946 2945 2944 2942 2941 2940 2938 2936 2935 2933 2932 2930 2928 2926 2924 2923 2921 2920 2918 2917 2916 2916 2914 2913 2912 2911 2910 2909 2908
3000 2998 2997 2995 2994 2992 2991 2989 2988 2986 2984 2983 2981 2980 2978 2977 2975 2973 2972 2970 2969 2967 2966 2964 2963 2961 2960 2958 2957 2956 2954 2953 2952 2951 2949 2948 2946 2946 2945 2943 2942 2941 2940 2939 2937 2936 2934 2932 2931 2929 2928 2926 2924 2922 2921 2919 2918 2916 2915 2914 2913 2912 2911 2909 2908 2907 2906 2905 2904
2997 2996 2994 2992 2991 2989 2988 2986 2985 2983 2981 2980 2978 2977 2975 2973 2972 2970 2969 2967 2966 2964 2962 2961 2960 2958 2956 2955 2954 2952 2951 2950 2948 2947 2946 2944 2943 2942 2941 2940 2939 2937 2936 2935 2934 2932 2930 2929 2927 2925 2923 2922 2920 2918 2917 2916 2914 2913 2911 2911 2909 2908 2907 2906 2905 2903 2902 2901 2900
2994 2993 2991 2990 2988 2986 2985 2984 2982 2980 2979 2977 2975 2974 2972 2970 2969 2967 2965 2964 2962 2960 2959 2957 2956 2954 2953 2951 2950 2949 2947 2946 2945 2943 2942 2941 2940 2938 2937 2936 2935 2934 2933 2931 2930 2928 2926 2925 2923 2921 2919 2918 2916 2915 2913 2912 2911 2909 2908 2907 2906 2905 2904 2902 2901 2900 2899 2898 2897
2991 2990 2988 2987 2985 2984 2982 2981 2979 2977 2976 2974 2972 2971 2969 2967 2965 2964 2962 2960 2959 2957 2955 2953 2951 2950 2948 2947 2946 2944 2943 2942 2941 2940 2938 2937 2936 2935 2933 2932 2931 2930 2929 2928 2926 2925 2923 2921 2919 2917 2915 2914 2912 2911 2909 2908 2907 2906 2905 2904 2903 2901 2901 2899 2898 2896 2895 2894 2893
2989 2987 2986 2984 2982 2981 2979 2978 2976 2974 2972 2971 2969 2967 2966 2964 2962 2960 2958 2956 2955 2953 2951 2949 2948 2946 2945 2943 2941 2940 2939 2937 2936 2935 2934 2933 2931 2931 2929 2928 2927 2926 2926 2924 2922 2921 2919 2917 2915 2913 2911 2910 2908 2907 2906 2904 2903 2902 2901 2900 2899 2898 2897 2896 2894 2893 2892 2891 2890
2986 2984 2983 2981 2980 2978 2976 2975 2973 2971 2969 2967 2966 2964 2962 2960 2958 2956 2954 2953 2951 2949 2948 2946 2945 2943 2941 2939 2938 2936 2935 2933 2932 2931 2930 2929 2927 2926 2925 2924 2923 2922 2921 2921 2919 2917 2915 2913 2911 2909 2907 2906 2904 2903 2902 2901 2899 2898 2897 2896 2895 2894 2893 2892 2891 2890 2889 2888 2887
2983 2981 2980 2978 2976 2975 2973 2971 2970 2968 2966 2964 2962 2961 2959 2957 2955 2953 2951 2949 2947 2946 2944 2942 2941 2939 2937 2936 2934 2932 2931 2930 2928 2926 2925 2924 2923 2922 2921 2920 2919 2918 2917 2917 2915 2913 2911 2910 2908 2906 2904 2902 2901 2899 2898 2896 2895 2894 2893 2892 2891 2890 2889 2888 2887 2886 2885 2885 2884
2980 2979 2977 2975 2973 2972 2970 2969 2967 2965 2963 2961 2959 2957 2955 2953 2951 2950 2948 2946 2944 2941 2940 2938 2937 2935 2933 2931 2930 2929 2927 2926 2924 2923 2921 2920 2919 2918 2916 2915 2915 2914 2913 2913 2911 2910 2908 2906 2904 2902 2900 2898 2897 2895 2894 2893 2891 2890 2889 2888 2887 2886 2885 2884 2883 2882 2882 2881 2881
2978 2976 2974 2972 2971 2969 2967 2966 2964 2961 2960 2958 2956 2954 2952 2950 2948 2946 2944 2942 2940 2937 2936 2934 2933 2931 2930 2928 2926 2925 2924 2923 2921 2920 2918 2916 2915 2914 2913 2911 2910 2910 2909 2909 2908 2906 2904 2902 2901 2899 2897 2895 2893 2891 2890 2889 2887 2886 2885 2884 2883 2882 2881 2880 2880 2879 2878 2877 2877
2975 2973 2971 2969 2967 2966 2964 2962 2960 2958 2956 2954 2952 2950 2948 2946 2944 2942 2940 2938 2936 2934 2932 2930 2929 2927 2926 2925 2923 2921 2920 2919 2918 2917 2915 2913 2912 2911 2909 2908 2906 2906 2905 2905 2904 2902 2901 2899 2897 2896 2894 2892 2890 2888 2886 2885 2884 2882 2881 2880 2879 2878 2877 2877 2876 2875 2874 2874 2873
2972 2971 2969 2966 2964 2962 2961 2959 2957 2955 2953 2951 2948 2946 2944 2942 2941 2939 2937 2935 2933 2931 2928 2926 2925 2923 2922 2921 2919 2917 2916 2915 2914 2913 2912 2910 2909 2907 2906 2905 2903 2902 2901 2901 2900 2899 2897 2896 2894 2893 2891 2889 2887 2885 2883 2882 2880 2879 2878 2877 2876 2875 2874 2873 2872 2872 2871 2870 2869
2970 2967 2966 2963 2961 2959 2957 2955 2953 2951 2949 2947 2945 2943 2941 2939 2937 2935 2933 2931 2929 2927 2925 2923 2921 2920 2918 2917 2915 2913 2912 2911 2910 2910 2909 2907 2906 2904 2903 2901 2900 2899 2898 2897 2896 2895 2894 2893 2891 2890 2888 2886 2884 2882 2880 2879 2877 2876 2875 2873 2872 2871 2870 2869 2868 2868 2867 2866 2866